Location: Newark
(56.0692°N, 115.8617°E)
Time: 11:27:16
(UTC+00:00)

Vanguard 2 Rocket - Pass Details

Date: 01 June 2020
Orbit: 556 x 3325 km, 32.9° (Epoch: 14 July)

Event Time Altitude Azimuth Distance (km) Brightness Sun altitude
Rises 10:30:16 0° 248° (WSW) 4,827 11.5 16.1°
Reaches altitude 10° 10:34:03 10° 233° (SW) 4,256 10.9 15.6°
Maximum altitude 10:42:30 22° 189° (S) 4,145 10.3 14.5°
Drops below altitude 10° 10:53:51 10° 148° (SSE) 5,867 10.6 13.0°
Sets 11:00:32 0° 136° (SE) 7,168 10.9 12.1°
